DELTA 1 DEB, 21442

Orbit data source: Space-Track

DELTA 1 DEB, 21442 is space debris in SSO originally from a launch on Thu, 12 Jun 1975 UTC launched from the Air Force Western Test Range (AFWTR). Debris objects in space refer to the collection of defunct objects orbiting the Earth. Examples of debris include non-operational satellites, rocket bodies, and fragments generated from explosions, collisions, or faulty payload assembly.

Loading next visibility...
Identifier
21442, 1975-052EA
Orbit
SSO
Country
Flag of USUS
Related business
Manufacturer
Unknown
Mission
Spacecraft
Bus & Motor
Unknown
Mass
Unknown
Launch date (UTC)
1975-06-12 (51 years ago)
Launch vehicle
Unknown
Launch site
Air Force Western Test Range (AFWTR)
Object type
Payload
Rocket body
Debris
Shape & HBR
Unknown shape, 0.1 m
Radar Cross Section
Medium (>0.1 m² and <1 m²)

Expand to show TLE details & history
Last TLE update: 2 days ago

TLE from 2 days ago
0 DELTA 1 DEB
1 21442U 75052EA  26167.48072196  .00002205  00000-0  48429-2 0  9999
2 21442  99.4561  62.0957 0307193 238.0284 305.3134 13.13492384639283
Epoch: 2026-06-16T11:32Z
TLE epoch observation values (Epoch: 2026-06-16T11:32:14.377Z)
Latitude
-0.51417°
Longitude
164.19845°
Altitude
1,082.63 km
Speed
7.373 km/s
True Right ascension
16h 08m 02s
True Declination
0° 30' 40"
Sunlit
Object was in full shadow at epoch
Visualization orbit readout
Latitude
Unknown
Longitude
Unknown
Altitude
Unknown
Speed
Unknown
Apparent Right ascension
Unknown
Apparent Declination
Unknown
Sunlit
N/A
Visualization observer readout
Local Sidereal Time
20:26:46
Azimuth
Unknown
Elevation
Unknown
Doppler factor
Unknown
Orbital elements
Apogee altitude
1,440.024 km
Perigee altitude
974.003 km
Semi-major axis
7,585.151 km
Eccentricity
0.03072
Inclination
99.4561°
RAAN
62.0957°
Arg. of periapsis
238.0284°
True anomaly
302.37707°
Mean anomaly
305.3134°
Eccentric anomaly
303.85168°
Mean motion
3.28547 °/min
Orbital period
109.57 mins
BSTAR
0.0048429
Loading maneuver chart data...
Computing Atmospheric mass density...
Loading historical data...
Loading historical data...
Loading historical data...
Loading historical data...
Loading historical data...
Loading historical data...
Loading historical data...

Documentation

Showing up to 5 results
|